• In Denmark
  • List of Countries
  • For 7 days
  • Water Temperature
  • Satellite Maps
  • Weather Map
  • Weather Widgets
  • user-avatar
    Login

    Hourly Weather Hobart

    Today, 21 September, Friday

    Time Temperature Precipitation Wind Pressure Humidity
    00:00 +8°C° 0 mm 3 mps 749 mmHg 93%
    01:00 +8°C° 0 mm 3 mps 750 mmHg 94%
    02:00 +7°C° 0 mm 3 mps 750 mmHg 94%
    03:00 +7°C° 0 mm 3 mps 750 mmHg 94%
    04:00 +8°C° 0 mm 3 mps 750 mmHg 93%
    05:00 +8°C° 0 mm 3 mps 750 mmHg 91%
    06:00 +8°C° 0 mm 3 mps 750 mmHg 89%
    07:00 +9°C° 0 mm 3 mps 750 mmHg 87%
    08:00 +11°C° 0 mm 3 mps 750 mmHg 80%
    09:00 +12°C° 0 mm 3 mps 751 mmHg 73%
    10:00 +14°C° 0 mm 3 mps 751 mmHg 66%
    11:00 +16°C° 0 mm 3 mps 751 mmHg 63%
    12:00 +17°C° 0 mm 4 mps 751 mmHg 60%
    13:00 +17°C° 0 mm 4 mps 750 mmHg 56%
    14:00 +17°C° 0 mm 4 mps 750 mmHg 57%
    15:00 +17°C° 0 mm 4 mps 750 mmHg 58%
    16:00 +18°C° 0 mm 2 mps 750 mmHg 54%
    17:00 +15°C° 0 mm 2 mps 750 mmHg 63%
    18:00 +13°C° 0 mm 2 mps 750 mmHg 71%
    19:00 +10°C° 0 mm 2 mps 751 mmHg 80%
    20:00 +10°C° 0 mm 3 mps 751 mmHg 81%
    21:00 +9°C° 0 mm 3 mps 751 mmHg 82%
    22:00 +8°C° 0 mm 2 mps 751 mmHg 83%
    23:00 +8°C° 0 mm 2 mps 751 mmHg 83%

    Tomorrow, 22 September, Saturday

    Time Temperature Precipitation Wind Pressure Humidity
    00:00 +8°C° 0 mm 3 mps 751 mmHg 82%
    01:00 +8°C° 0 mm 3 mps 751 mmHg 82%
    02:00 +8°C° 0 mm 3 mps 751 mmHg 82%
    03:00 +8°C° 0 mm 3 mps 751 mmHg 82%
    04:00 +8°C° 0 mm 3 mps 751 mmHg 82%
    05:00 +9°C° 0 mm 3 mps 751 mmHg 80%
    06:00 +8°C° 0 mm 4 mps 751 mmHg 79%
    07:00 +8°C° 0 mm 4 mps 750 mmHg 78%
    08:00 +10°C° 0 mm 4 mps 750 mmHg 74%
    09:00 +12°C° 0 mm 5 mps 750 mmHg 70%
    10:00 +13°C° 0 mm 5 mps 750 mmHg 66%
    11:00 +13°C° 0 mm 5 mps 750 mmHg 64%
    12:00 +14°C° 0 mm 5 mps 750 mmHg 63%
    13:00 +14°C° 0 mm 6 mps 750 mmHg 62%
    14:00 +13°C° 0.4 mm 5 mps 750 mmHg 71%
    15:00 +10°C° 0.4 mm 5 mps 750 mmHg 80%
    16:00 +9°C° 0.4 mm 5 mps 750 mmHg 89%
    17:00 +8°C° 0.1 mm 5 mps 751 mmHg 89%
    18:00 +7°C° 0.1 mm 5 mps 752 mmHg 90%
    19:00 +6°C° 0.1 mm 4 mps 752 mmHg 91%
    20:00 +5°C° 0 mm 4 mps 753 mmHg 91%
    21:00 +4°C° 0 mm 4 mps 753 mmHg 91%
    22:00 +3°C° 0 mm 4 mps 754 mmHg 91%
    23:00 +2°C° 0 mm 5 mps 754 mmHg 91%

    Day after tomorrow, 23 September, Sunday

    Time Temperature Precipitation Wind Pressure Humidity
    00:00 +2°C° 0 mm 5 mps 754 mmHg 91%
    01:00 +1°C° 0 mm 5 mps 754 mmHg 90%
    02:00 +1°C° 0 mm 5 mps 754 mmHg 90%
    03:00 +1°C° 0 mm 5 mps 754 mmHg 89%
    04:00 +1°C° 0 mm 5 mps 754 mmHg 88%
    05:00 +2°C° 0 mm 5 mps 754 mmHg 86%
    06:00 +3°C° 0 mm 6 mps 754 mmHg 84%
    07:00 +3°C° 0 mm 6 mps 755 mmHg 82%
    08:00 +4°C° 0.1 mm 6 mps 755 mmHg 79%
    09:00 +4°C° 0.1 mm 6 mps 755 mmHg 75%
    10:00 +5°C° 0.1 mm 7 mps 756 mmHg 72%
    11:00 +6°C° 0.1 mm 7 mps 756 mmHg 66%
    12:00 +6°C° 0.1 mm 7 mps 756 mmHg 61%
    13:00 +8°C° 0.1 mm 7 mps 757 mmHg 55%
    14:00 +6°C° 0.1 mm 7 mps 757 mmHg 57%
    15:00 +7°C° 0.1 mm 6 mps 757 mmHg 58%
    16:00 +5°C° 0.1 mm 6 mps 758 mmHg 60%
    17:00 +4°C° 0 mm 6 mps 758 mmHg 64%
    18:00 +3°C° 0 mm 5 mps 759 mmHg 69%
    19:00 +1°C° 0 mm 4 mps 759 mmHg 74%
    20:00 0°C° 0 mm 4 mps 760 mmHg 77%
    21:00 -1°C° 0 mm 4 mps 760 mmHg 81%
    22:00 0°C° 0 mm 3 mps 761 mmHg 85%
    23:00 -1°C° 0 mm 3 mps 761 mmHg 87%

    24 September, Monday

    Time Temperature Precipitation Wind Pressure Humidity
    00:00 -1°C° 0 mm 3 mps 761 mmHg 88%
    01:00 -1°C° 0 mm 3 mps 761 mmHg 90%
    02:00 -2°C° 0 mm 3 mps 760 mmHg 91%
    03:00 -2°C° 0 mm 3 mps 760 mmHg 92%
    04:00 -2°C° 0 mm 3 mps 760 mmHg 94%
    05:00 -1°C° 0 mm 3 mps 760 mmHg 89%
    06:00 0°C° 0 mm 3 mps 760 mmHg 85%
    07:00 0°C° 0 mm 3 mps 761 mmHg 80%
    08:00 +3°C° 0 mm 3 mps 761 mmHg 71%
    09:00 +5°C° 0 mm 3 mps 761 mmHg 62%
    10:00 +9°C° 0 mm 3 mps 760 mmHg 53%
    11:00 +8°C° 0 mm 4 mps 760 mmHg 51%
    12:00 +10°C° 0 mm 4 mps 760 mmHg 49%
    13:00 +11°C° 0 mm 4 mps 759 mmHg 48%
    14:00 +10°C° 0 mm 4 mps 759 mmHg 49%
    15:00 +10°C° 0 mm 4 mps 759 mmHg 50%
    16:00 +10°C° 0 mm 4 mps 758 mmHg 51%
    17:00 +7°C° 0 mm 4 mps 758 mmHg 62%
    18:00 +5°C° 0 mm 4 mps 759 mmHg 72%
    19:00 +2°C° 0 mm 3 mps 759 mmHg 83%
    20:00 +2°C° 0 mm 3 mps 759 mmHg 87%
    21:00 +1°C° 0 mm 3 mps 759 mmHg 91%
    22:00 0°C° 0 mm 3 mps 759 mmHg 95%
    23:00 0°C° 0 mm 3 mps 759 mmHg 96%

    25 September, Tuesday

    Time Temperature Precipitation Wind Pressure Humidity
    00:00 0°C° 0 mm 3 mps 758 mmHg 96%
    01:00 0°C° 0 mm 3 mps 758 mmHg 96%
    02:00 0°C° 0 mm 3 mps 758 mmHg 96%
    03:00 0°C° 0 mm 3 mps 757 mmHg 97%
    04:00 0°C° 0 mm 3 mps 757 mmHg 97%
    05:00 0°C° 0 mm 3 mps 757 mmHg 94%
    06:00 +1°C° 0 mm 3 mps 757 mmHg 92%
    07:00 +2°C° 0 mm 3 mps 757 mmHg 89%
    08:00 +4°C° 0 mm 3 mps 757 mmHg 78%
    09:00 +7°C° 0 mm 3 mps 757 mmHg 68%
    10:00 +9°C° 0 mm 3 mps 757 mmHg 57%
    11:00 +10°C° 0 mm 3 mps 757 mmHg 57%
    12:00 +10°C° 0 mm 3 mps 756 mmHg 56%
    13:00 +10°C° 0 mm 3 mps 756 mmHg 55%
    14:00 +10°C° 0 mm 3 mps 756 mmHg 54%
    15:00 +10°C° 0 mm 3 mps 755 mmHg 53%
    16:00 +10°C° 0 mm 3 mps 755 mmHg 53%
    17:00 +8°C° 0 mm 3 mps 755 mmHg 63%
    18:00 +5°C° 0 mm 3 mps 755 mmHg 74%
    19:00 +3°C° 0 mm 3 mps 755 mmHg 85%
    20:00 +3°C° 0 mm 2 mps 755 mmHg 88%
    21:00 +2°C° 0 mm 2 mps 755 mmHg 92%
    22:00 +1°C° 0 mm 2 mps 755 mmHg 96%
    23:00 +1°C° 0 mm 2 mps 755 mmHg 96%

    26 September, Wednesday

    Time Temperature Precipitation Wind Pressure Humidity
    00:00 +1°C° 0 mm 2 mps 755 mmHg 95%
    01:00 +1°C° 0 mm 2 mps 755 mmHg 95%
    02:00 +1°C° 0 mm 2 mps 754 mmHg 94%
    03:00 +1°C° 0 mm 2 mps 754 mmHg 93%
    04:00 +3°C° 0 mm 1 mps 754 mmHg 91%
    05:00 +3°C° 0 mm 1 mps 754 mmHg 87%
    06:00 +4°C° 0 mm 1 mps 754 mmHg 82%
    07:00 +5°C° 0 mm 1 mps 754 mmHg 78%
    08:00 +8°C° 0 mm 1 mps 753 mmHg 67%
    09:00 +10°C° 0 mm 1 mps 753 mmHg 56%
    10:00 +13°C° 0 mm 1 mps 753 mmHg 46%
    11:00 +14°C° 0 mm 1 mps 752 mmHg 44%
    12:00 +15°C° 0 mm 1 mps 752 mmHg 42%
    13:00 +16°C° 0 mm 2 mps 751 mmHg 40%
    14:00 +15°C° 0 mm 2 mps 751 mmHg 45%
    15:00 +14°C° 0 mm 3 mps 751 mmHg 50%
    16:00 +13°C° 0 mm 3 mps 750 mmHg 55%
    17:00 +11°C° 0 mm 3 mps 750 mmHg 67%
    18:00 +9°C° 0 mm 3 mps 750 mmHg 79%
    19:00 +7°C° 0 mm 2 mps 750 mmHg 91%
    20:00 +6°C° 0.1 mm 2 mps 750 mmHg 93%
    21:00 +6°C° 0.1 mm 2 mps 749 mmHg 95%
    22:00 +6°C° 0.1 mm 2 mps 749 mmHg 97%
    23:00 +6°C° 0.2 mm 2 mps 749 mmHg 97%
    Show more